STARLINK-1357, 45565

Orbit data source: Space-Track

STARLINK-1357, 45565 is a payload satellite owned by SpaceX/Seattle (US) in LEO that was launched on Wed, 22 Apr 2020 UTC via an FALCON 9 launch vehicle from the Air Force Eastern Test Range (AFETR). Payloads include a variety of satellites, spacecraft, and rockets equipped with specific instruments for various scientific and technological missions. These include communications satellites like Starlink; space stations such as the ISS; scientific satellites like the Hubble; Earth observation satellites from companies like Planet Labs, Umbra, and HawkEye 360; GPS; miniature CubeSats for education and research; and military/defense satellites.

Loading next visibility...
STARLINK-1357 details
Identifier
45565, 2020-025AL
Orbit
LEO
Last TLE update22 hours ago
Origin
Flag of USSpaceX/Seattle (US)
ManufacturerSpaceX/Seattle
MissionOperational Commercial Communications
Bus & MotorSTARLINK, Unknown motor
Mass260 kg wet, ~248 kg dry
Launch date (UTC)
2020-04-22 (5 years ago)
Launch vehicle
FALCON 9
Launch site
Air Force Eastern Test Range (AFETR)
Object type
Payload
Rocket body
Debris
Shape & HBRBox + 1 Pan, 8.86 m
Radar Cross Section13.562 m², Large (>1 m²)

Expand to show TLE details & history

TLE from 22 hours ago
0 STARLINK-1357
1 45565U 20025AL  25023.70869419  .00004637  00000-0  32988-3 0  9993
2 45565  53.0550 127.0916 0001387  94.5128 265.6019 15.06411038263570
Epoch: 2025-01-23T17:00Z
Definitive object data (Epoch: 2025-01-23T17:00:31.177Z)
Latitude-0.00008°
Longitude108.6793°
Altitude548.131 km
Speed7.589 km/s
True Right ascension08h 28m 21s
True Declination0° 00' 00"
Sunlit
Object was in full shadow at TLE epoch
Visualization TLE readout
Latitude-39.56648°
Longitude-37.215°
Altitude560.817 km
Speed7.58 km/s
Apparent Right ascension01h 14m 11s
Apparent Declination-46° 54' 25"
Sunlit
Object is in daylight
Visualization observer readout
Local Sidereal Time16:00:25
Azimuth117.114° SE
Elevation-59.394°
Doppler factor1
Orbital elements
Apogee altitude548.409 km
Perigee altitude546.488 km
Semi-major axis6,925.585 km
Eccentricity0.0001387
Inclination53.055°
RAAN127.0916°
Arg. of periapsis94.5128°
True anomaly265.58605°
Mean anomaly265.6019°
Eccentric anomaly265.59398°
Mean motion3.76581 °/min
BSTAR0.00032988
Orbital period95.6 mins
Loading maneuver chart data...
Loading historical data...
Loading historical data...
Loading historical data...
Loading historical data...
Loading historical data...
Loading historical data...
Loading historical data...

STARLINK-1357 Visibility forecast

Observer location: undefined°, undefined

Span
Click to sort rows by Start time (UTC) header in descending order
Start Az.
Max El. time (UTC)
Max El. Az.
Max El.
End time (UTC)
End Az.
7 mins2025-01-24 15:47:11.455Z320.017° NNW2025-01-24 15:50:11.455Z17.966° NNE38.32°2025-01-24 15:54:11.455Z112.606° SE
4 mins2025-01-24 17:28:11.455Z261.584° W2025-01-24 17:30:11.455Z221.163° SW19.614°2025-01-24 17:32:11.455Z188.11° SSW
6 mins2025-01-25 09:00:11.455Z217.936° SW2025-01-25 09:02:11.455Z185.375° SSW41.941°2025-01-25 09:06:11.455Z54.63° ENE
5 mins2025-01-25 10:40:11.455Z291.858° WNW2025-01-25 10:42:11.455Z328.795° NNW21.77°2025-01-25 10:45:11.455Z24.632° NE
4 mins2025-01-25 14:02:11.455Z345.752° N2025-01-25 14:04:11.455Z21.504° NNE17.853°2025-01-25 14:06:11.455Z55.706° ENE
|